#timestamp,LO_Frequency,Hit,StdDev 
1568037615.0,286047001.1,N
1568037615.9,286047001.1,N
1568037635.8,286047001.0,N
1568037655.6,286047000.9,N
1568037675.4,286047000.4,N
1568037695.3,286046999.8,N
1568037715.1,286047000.1,N
1568037735.9,286047001.0,N
1568037755.7,286047001.1,N
1568037775.5,286047000.6,N
1568037795.4,286046999.9,N
1568037815.2,286047002.6,N
1568037835.1,286047001.6,N
1568037836.0,286047001.6,N
1568037855.8,286047000.4,N
1568037875.6,286047002.8,N
1568037895.5,286047002.4,N
1568037915.3,286047001.7,N
1568037935.2,286047004.0,Y
1568037955.9,286047001.4,P
1568037975.7,286047003.9,P
1568037995.6,286047003.7,N
1568038015.4,286047006.0,Y
1568038035.3,286047002.7,P
1568038055.2,286047001.7,P
1568038075.0,286047001.9,P
1568038076.0,286047001.9,Y
1568038095.8,286046999.9,P
1568038115.6,286046998.1,N
1568038135.5,286047000.9,N
1568038155.3,286047000.9,N
1568038175.1,286047000.5,N
1568038195.9,286047002.7,N
1568038215.7,286046999.8,N
1568038235.6,286047000.2,N
1568038255.4,286047001.0,N
1568038275.2,286046998.4,N
1568038295.1,286046998.4,N
1568038296.0,286046998.4,N
1568038315.8,286046998.1,N
1568038335.6,286046999.3,N
1568038355.5,286046999.3,N
1568038375.3,286046999.1,N
1568038395.2,286046999.2,N
1568038415.9,286046999.5,N
1568038435.7,286046997.2,N
1568038455.6,286046999.0,N
1568038475.4,286046999.2,N
1568038495.2,286046998.9,N
1568038515.1,286046998.8,N
1568038516.0,286046998.8,N
1568038535.8,286046996.5,N
1568038555.7,286046998.7,N
1568038575.5,286046998.5,N
1568038595.3,286046998.2,N
1568038615.2,286046998.8,N
1568038635.0,286046998.7,N
1568038635.9,286046998.7,N
1568038655.8,286046996.5,N
1568038675.6,286046997.3,N
1568038695.4,286046997.7,N
1568038715.3,286046997.2,N
1568038735.1,286046995.1,Y
1568038755.9,286046996.9,P
1568038775.7,286046996.5,P
1568038795.5,286046997.1,P
1568038815.4,286046997.5,N
1568038835.2,286046999.5,N
1568038855.0,286046998.9,N
1568038855.9,286046998.9,N
1568038875.8,286046999.4,N
1568038895.6,286046998.5,N
1568038915.5,286046999.2,N
1568038935.3,286046996.8,Y
1568038955.1,286046998.5,P
1568038975.9,286046996.5,P
1568038995.7,286046995.0,P
1568039015.5,286046997.5,N
1568039035.4,286046996.5,N
1568039055.2,286046996.5,N
1568039075.1,286046996.6,Y
1568039076.0,286046996.6,P
1568039095.8,286047002.8,P
1568039115.7,286047002.3,N
1568039135.5,286047001.5,N
1568039155.3,286047001.8,N
1568039175.2,286047002.1,N
1568039195.0,286047001.6,N
1568039195.9,286047001.6,N
1568039215.7,286047002.5,N
1568039235.6,286046999.8,N
1568039255.4,286047002.7,N
1568039275.3,286047001.9,N
1568039295.1,286047002.7,N
1568039296.0,286047002.7,N
1568039315.8,286047002.3,N
1568039335.7,286047001.6,N
1568039355.5,286047004.4,N
1568039375.4,286047002.0,N
1568039395.2,286047002.0,N
1568039415.0,286047001.6,N
1568039415.9,286047001.6,N
1568039435.8,286047002.3,N
1568039455.6,286046999.7,N
1568039475.4,286046999.8,N
1568039495.3,286047000.6,N
1568039515.1,286047000.6,N
1568039535.9,286047000.6,N
1568039555.7,286047000.7,N
1568039575.5,286047000.8,N
1568039595.4,286047001.0,N
1568039615.2,286047000.1,N
1568039635.0,286047002.7,N
1568039635.9,286047002.7,N
1568039655.8,286046999.7,N
1568039675.6,286047000.5,N
1568039695.5,286047000.2,N
1568039715.3,286047000.7,N
1568039735.1,286047000.8,N
1568039755.9,286046996.5,Y
1568039775.7,286046997.1,P
1568039795.6,286046995.3,N
1568039815.4,286046997.2,N
1568039835.2,286046996.9,N
1568039855.1,286046997.0,N
1568039856.0,286046997.0,N
1568039875.8,286046998.4,N
1568039895.6,286046998.7,N
1568039915.5,286046998.4,N
1568039935.3,286046998.5,N
1568039955.2,286047000.3,N
1568039975.9,286047000.3,N
1568039995.7,286047000.1,N
1568040015.6,286047000.2,N
1568040035.4,286047000.5,N
1568040055.3,286046998.1,N
1568040075.1,286046998.3,N
1568040076.0,286046998.3,N
1568040095.8,286046998.9,N
1568040115.7,286046998.9,N
1568040135.5,286046999.2,N
1568040155.3,286046998.4,N
1568040175.2,286047000.6,N
1568040195.0,286047000.3,N
1568040195.9,286047000.3,N
1568040215.8,286047002.8,N
1568040235.6,286047000.4,N
1568040255.4,286047000.3,N
1568040275.3,286046999.7,N
1568040295.1,286046999.9,N
1568040315.8,286047000.3,N
1568040335.7,286047000.4,N
1568040355.5,286047000.4,N
1568040375.4,286046998.3,N
1568040395.2,286046998.2,N
1568040415.0,286047000.9,N
1568040415.9,286047000.9,N
1568040435.8,286046999.3,N
1568040455.6,286046998.4,N
1568040475.4,286046999.2,N
1568040495.3,286047001.2,N
1568040515.1,286047000.6,N
1568040535.9,286047000.8,N
1568040555.7,286046999.9,N
1568040575.5,286047000.6,N
1568040595.4,286047000.2,N
1568040615.2,286046999.8,N
1568040635.1,286046999.9,N
1568040655.5,286047000.0,N
1568040675.3,286047000.9,N
1568040695.1,286047001.1,N
1568040715.9,286047000.6,N
1568040735.7,286046998.7,N
1568040755.6,286047001.1,N
1568040775.4,286046998.5,N
1568040795.2,286046998.1,N
1568040845.1,286047000.9,E
1568040855.0,286046998.6,N
1568040855.9,286046998.6,P
1568040875.8,286046998.7,P
1568040895.6,286046998.7,Y
1568040915.4,286047001.2,P
1568040935.3,286047000.8,N
1568040955.1,286046999.9,N
1568040975.9,286047000.8,N
1568040995.7,286047000.2,N
1568041015.5,286047002.1,N
1568041035.4,286047001.6,N
1568041055.2,286047001.8,N
1568041075.0,286047003.5,Y
1568041075.9,286047003.5,P
1568041095.8,286047001.8,N
1568041115.6,286047002.2,N
1568041135.5,286047002.3,N
1568041155.3,286046999.8,N
1568041175.1,286047001.0,N
1568041195.9,286046998.7,N
